Header for Extended Forecast Station List Page

Search by: ID | Name | Date | Parm | Value | Avg | % Avg
Sort by: ID | Name | Date | Parm | Value | Avg | % Avg

Enter search or view all records.

Click on id for station plot
#IDNameDateParmValueAvg% Avg
0LYDM8KOOTENAI-LIBBY DAM05-09-2022INFLOW (KAF)55894896114
1LEOI1KOOTENAI-AT LEONIA05-09-2022DISCHARGE (KAF)41184028102
2BFEI1KOOTENAI-AT BONNERS FERRY05-09-2022STAGE (FT)MMM
3FCFM8NF FLATHEAD-NEAR COLUMBIA FALLS05-09-2022DISCHARGE (KAF)14671264116
4WGCM8MF FLATHEAD-NEAR WEST GLACIER05-09-2022DISCHARGE (KAF)14151199118
5HHWM8SF FLATHEAD-HUNGRY HORSE DAM05-09-2022INFLOW (KAF)14831425104
6CFMM8FLATHEAD-AT COLUMBIA FALLS05-09-2022DISCHARGE (KAF)38773488111
7DLGM8CLARK FORK-AT DEER LODGE05-09-2022DISCHARGE (KAF)346354
8DRMM8CLARK FORK-NR DRUMMOND05-09-2022DISCHARGE (KAF)11118560
9RCCM8ROCK CREEK-NEAR CLINTON05-09-2022DISCHARGE (KAF)229213107
10BONM8BLACKFOOT-NEAR BONNER05-09-2022DISCHARGE (KAF)49757487
11ABOM8CLARK FORK-ABOVE MISSOULA05-09-2022DISCHARGE (KAF)873103784
12BITM8BITTERROOT-NEAR MISSOULA05-09-2022DISCHARGE (KAF)956916104
13BELM8CLARK FORK-BELOW MISSOULA05-09-2022DISCHARGE (KAF)1829199192
14STRM8ST. REGIS-NEAR ST. REGIS05-09-2022DISCHARGE (KAF)200162124
15SRGM8CLARK FORK-AT ST REGIS05-09-2022DISCHARGE (KAF)2495259796
16KERM8FLATHEAD-SELI’Š KSANKA QLISPE’ DAM05-09-2022INFLOW (KAF)45174181108
17NOXM8CLARK FORK-NOXON RAPIDS DAM05-09-2022INFLOW (KAF)68286843100
18CABI1CLARK FORK-CABINET GORGE DAM05-09-2022INFLOW (KAF)74837516100
19PRTI1PRIEST-NEAR PRIEST RIVER05-09-2022DISCHARGE (KAF)48552892
20ALFW1PEND OREILLE-ALBENI FALLS DAM05-09-2022INFLOW (KAF)83928170103
21HOPI1PEND OREILLE-PEND OREILLE LAKE NR HOPE05-09-2022LAKE ELEVATION (FT)MMM
22COEI1COEUR D ALENE-COEUR D ALENE LAKE05-09-2022INFLOW (KAF)15511188131
23SPOW1SPOKANE-AT SPOKANE05-09-2022DISCHARGE (KAF)16391307125
24LLKW1SPOKANE-AT LONGLAKE05-09-2022INFLOW (KAF)18251507121
25SATI1ST MARIES-NEAR SANTA05-09-2022DISCHARGE (KAF)455189
26SJMI1ST JOE-AT ST MARIES05-09-2022STAGE (FT)MMM
27CIBW1COLUMBIA-AT INTL BOUNDARY05-09-2022DISCHARGE (KAF)3163729917106
28LAUW1KETTLE-AT LAURIER05-09-2022DISCHARGE (KAF)1065124885
29GCDW1COLUMBIA-GRAND COULEE DAM05-09-2022INFLOW (KAF)3458130418114
30CHJW1COLUMBIA-CHIEF JOSEPH DAM05-09-2022INFLOW (KAF)3091829038106
31TONW1OKANOGAN-NEAR TONASKET05-09-2022DISCHARGE (KAF)14041212116
32PATW1METHOW-NEAR PATEROS05-09-2022DISCHARGE (KAF)786676116
33WELW1COLUMBIA-WELLS DAM05-09-2022INFLOW (KAF)3311131084107
34CHDW1CHELAN-LAKE CHELAN DAM05-09-2022INFLOW (KAF)965825117
35RRHW1COLUMBIA-ROCKY REACH DAM05-09-2022INFLOW (KAF)3396632026106
36ARDW1ENTIAT-NEAR ARDENVOIR05-09-2022DISCHARGE (KAF)186162115
37PESW1WENATCHEE-AT PESHASTIN05-09-2022DISCHARGE (KAF)11221043108
38WANW1COLUMBIA-WANAPUM DAM05-09-2022INFLOW (KAF)3508533059106
39PRWW1COLUMBIA-PRIEST RAPIDS DAM05-09-2022INFLOW (KAF)3505233161106
40KEDW1YAKIMA-KEECHELUS LAKE05-09-2022INFLOW (KAF)9272128
41KADW1KACHESS-KACHESS DAM05-09-2022INFLOW (KAF)8262131
42EASW1YAKIMA-AT EASTON05-09-2022DISCHARGE (KAF)13185154
43CLUW1CLE ELUM-CLE ELUM LAKE05-09-2022INFLOW (KAF)337270125
44TNAW1TEANAWAY-BELOW FORKS05-09-2022DISCHARGE (KAF)8062130
45UMTW1YAKIMA-AT UMTANUM05-09-2022DISCHARGE (KAF)924831111
46BUDW1BUMPING-BUMPING LAKE DAM05-09-2022INFLOW (KAF)9980124
47CLFW1NACHES-NEAR CLIFFDEL05-09-2022DISCHARGE (KAF)332267124
48RILW1TIETON-RIMROCK LAKE NEAR RIMROCK05-09-2022INFLOW (KAF)186151123
49NACW1NACHES-NEAR NACHES05-09-2022DISCHARGE (KAF)566393144
50PARW1YAKIMA-NEAR PARKER05-09-2022DISCHARGE (KAF)603336179
51KIOW1YAKIMA-AT KIONA05-09-2022DISCHARGE (KAF)901602150
52IPDI1HENRYS FORK-ISLAND PARK DAM05-09-2022INFLOW (KAF)13217177
53CHEI1FALL RIVER-NEAR CHESTER05-09-2022DISCHARGE (KAF)14925559
54ANTI1HENRYS FORK-AT ST. ANTHONY05-09-2022DISCHARGE (KAF)35948874
55TEAI1TETON-NEAR ST. ANTHONY05-09-2022DISCHARGE (KAF)25132577
56REXI1HENRYS FORK-AT REXBURG05-09-2022DISCHARGE (KAF)33956260
57JLKW4SNAKE-JACKSON LAKE AT DAM05-09-2022INFLOW (KAF)46462774
58JKSW4SNAKE-NEAR JACKSON05-09-2022DISCHARGE (KAF)1326157084
59ALPW4SNAKE-NEAR ALPINE05-09-2022DISCHARGE (KAF)1560193281
60PLDI1SF SNAKE-PALISADES DAM05-09-2022INFLOW (KAF)2154256384
61HEII1SNAKE-NEAR HEISE05-09-2022DISCHARGE (KAF)2647294190
62RIDI1WILLOW CREEK-RIRIE DAM05-09-2022INFLOW (KAF)152173
63SIFI1SNAKE-AB EAGLE ROCK NR IDAHO FALLS05-09-2022DISCHARGE (KAF)1613194083
64SHYI1SNAKE-NEAR SHELLEY05-09-2022DISCHARGE (KAF)1378173979
65SNAI1SNAKE-AT BLACKFOOT05-09-2022DISCHARGE (KAF)805106376
66BFTI1SNAKE-NEAR BLACKFOOT05-09-2022DISCHARGE (KAF)762102674
67PIHI1PORTNEUF-AT POCATELLO05-09-2022DISCHARGE (KAF)193062
68AFRI1SNAKE-AMERICAN FALLS RESERVOIR05-09-2022INFLOW (KAF)1288156083
69MILI1SNAKE-AT MILNER05-09-2022DISCHARGE (KAF)M49M
70HOTI1BRUNEAU-NEAR HOT SPRINGS05-09-2022DISCHARGE (KAF)4910646
71SWAI1SNAKE-BELOW SWAN FALLS05-09-2022DISCHARGE (KAF)1489168189
72HWRI1BIG LOST-AT HOWELL RANCH NEAR CHILLY05-09-2022DISCHARGE (KAF)9712578
73MACI1BIG LOST-MACKAY RESERVOIR NEAR MACKAY05-09-2022INFLOW (KAF)9392101
74HALI1BIG WOOD-AT HAILEY05-09-2022DISCHARGE (KAF)14016187
75MAGI1BIG WOOD-MAGIC DAM05-09-2022INFLOW (KAF)9011082
76LWRI1LITTLE WOOD-LITTLE WOOD DAM05-09-2022INFLOW (KAF)253866
77OWYO3OWYHEE-OWYHEE DAM05-09-2022INFLOW (KAF)6311654
78ARAI1SF BOISE-ANDERSON RANCH DAM05-09-2022INFLOW (KAF)27728498
79LUCI1BOISE-LUCKY PEAK DAM05-09-2022INFLOW (KAF)1015998102
80BIGI1BOISE-AT GLENWOOD BRIDGE05-09-2022DISCHARGE (KAF)26727497
81PARI1BOISE-NEAR PARMA05-09-2022DISCHARGE (KAF)22223794
82WRMO3MALHEUR-WARM SPRINGS DAM05-09-2022INFLOW (KAF)51727
83BERO3MALHEUR-AGENCY VALLEY DAM05-09-2022INFLOW (KAF)102539
84BULO3BULLY CREEK-BULLY CREEK DAM05-09-2022INFLOW (KAF)001560
85CSDI1NF PAYETTE-CASCADE DAM05-09-2022INFLOW (KAF)26731385
86DEDI1DEADWOOD-NEAR LOWMAN05-09-2022INFLOW (KAF)829091
87EMMI1PAYETTE-NEAR EMMETT05-09-2022DISCHARGE (KAF)67289175
88WSRI1WEISER-NEAR WEISER05-09-2022DISCHARGE (KAF)193184105
89WEII1SNAKE-AT WEISER05-09-2022DISCHARGE (KAF)2733313187
90BRNI1SNAKE-BROWNLEE DAM05-09-2022INFLOW (KAF)2940343985
91WHBI1SALMON-AT WHITEBIRD05-09-2022DISCHARGE (KAF)4162437595
92TRYO3GRANDE RONDE-TROY05-09-2022DISCHARGE (KAF)71476493
93ANAW1SNAKE-NEAR ANATONE05-09-2022DISCHARGE (KAF)8113949885
94ORFI1CLEARWATER-AT OROFINO05-09-2022DISCHARGE (KAF)33962964115
95DWRI1NF CLEARWATER-DWORSHAK DAM05-09-2022INFLOW (KAF)17771532116
96SPDI1CLEARWATER-AT SPALDING05-09-2022DISCHARGE (KAF)53335019106
97LGDW1SNAKE-LOWER GRANITE DAM05-09-2022INFLOW (KAF)134451488590
98LGSW1SNAKE-LITTLE GOOSE DAM05-09-2022INFLOW (KAF)134381486390
99LMNW1SNAKE-LOWER MONUMENTAL DAM05-09-2022INFLOW (KAF)134941483391
100IHDW1SNAKE-ICE HARBOR DAM05-09-2022INFLOW (KAF)134981484191
101TCHW1WALLA WALLA-NEAR TOUCHET05-09-2022DISCHARGE (KAF)8148169
102MCDW1COLUMBIA-MCNARY DAM05-09-2022INFLOW (KAF)4967049361101
103GIBO3UMATILLA-NEAR GIBBON05-09-2022DISCHARGE (KAF)4630153
104PDTO3UMATILLA-AT PENDLETON05-09-2022DISCHARGE (KAF)7847166
105MYKO3MCKAY CREEK-NEAR PILOT ROCK05-09-2022DISCHARGE (KAF)156252
106UMAO3UMATILLA-NEAR UMATILLA05-09-2022DISCHARGE (KAF)12641304
107MONO3NF JOHN DAY-AT MONUMENT05-09-2022DISCHARGE (KAF)22623796
108SERO3JOHN DAY-AT SERVICE CK05-09-2022DISCHARGE (KAF)28134083
109JDAO3COLUMBIA-JOHN DAY DAM05-09-2022INFLOW (KAF)5085849501103
110MODO3DESCHUTES-AT MOODY NR BIGGS05-09-2022DISCHARGE (KAF)11681160101
111TDAO3COLUMBIA-THE DALLES DAM05-09-2022INFLOW (KAF)5112949697103
112PITW1KLICKITAT-NEAR PITT05-09-2022DISCHARGE (KAF)383325118
113HODO3HOOD-NEAR TUCKER BRIDGE05-09-2022DISCHARGE (KAF)179142126
114UNDW1WHITE SALMON-NEAR UNDERWOOD05-09-2022DISCHARGE (KAF)271233116
115BONO3COLUMBIA-BONNEVILLE DAM05-09-2022INFLOW (KAF)5203551298101